Weather History for Cape Girardeau, MO

Change the Weather History Date:

Sunday, March 30, 2014

  Actual Average Record
Temperature  
Mean Temperature 44 °F 52 °F  
Max Temperature 59 °F 63 °F 84 °F (1986)
Min Temperature 28 °F 40 °F 16 °F (1964)
Degree Days  
Heating Degree Days 21 14  
Month to date heating degree days 708 546  
Since 1 July heating degree days 4633 4043  
Cooling Degree Days 0 0  
Month to date cooling degree days 0 0  
Year to date cooling degree days 0 0  
Moisture  
Dew Point 33 °F    
Average Humidity 74    
Maximum Humidity 100    
Minimum Humidity 47    
Precipitation  
Precipitation 0.00 in 0.16 in 4.42 in (1985)
Month to date precipitation 2.30 4.24  
Year to date precipitation 5.44 11.12  
Sea Level Pressure  
Sea Level Pressure 30.24 in    
Wind  
Wind Speed 3 mph (SSW)    
Max Wind Speed 10 mph    
Max Gust Speed 15 mph    
Visibility 4 miles    
Events Fog    
T = Trace of Precipitation, MM = Missing Value Source: NWS Daily Summary

Daily Weather History Graph

Daily Weather History Graph

Search for Another Location

Airport:

Trip Planner

Search our weather history database for the weather conditions in past years. The results will help you decide how hot, cold, wet, or windy it might be!

Date:

Astronomy

Mar. 30, 2014 Rise Set
Actual Time 6:46 AM CDT 7:19 PM CDT
Civil Twilight 6:20 AM CDT 7:45 PM CDT
Nautical Twilight 5:49 AM CDT 8:16 PM CDT
Astronomical Twilight 5:18 AM CDT 8:47 PM CDT
Moon 6:32 AM CDT (3/30) 7:31 PM CDT (3/30)
Length of Visible Light 13h 24m
Length of Day
12h 32m
Waning Crescent, 0% of the Moon is Illuminated
Mar 30
Waning Crescent
Mar 30
New
Apr 7
First Quarter
Apr 15
Full
Apr 22
Last Quarter

Hourly Weather History & Observations

Time (CDT) Temp. Windchill Dew Point Humidity Pressure Visibility Wind Dir Wind Speed Gust Speed Precip Events Conditions
12:53 AM 32.0 °F 27.5 °F 30.0 °F 92% 30.28 in 4.0 mi West 4.6 mph - N/A   Clear
1:53 AM 32.0 °F 28.7 °F 30.0 °F 92% 30.29 in 3.0 mi WNW 3.5 mph - N/A   Clear
2:53 AM 33.1 °F - 28.9 °F 85% 30.29 in 4.0 mi Calm Calm - N/A   Clear
3:44 AM 30.9 °F - 30.0 °F 96% 30.27 in 2.5 mi Calm Calm - N/A   Clear
3:53 AM 32.0 °F - 30.0 °F 92% 30.27 in 2.5 mi Calm Calm - N/A   Clear
4:05 AM 32.0 °F - 30.0 °F 92% 30.26 in 3.0 mi Calm Calm - N/A   Clear
4:20 AM 30.0 °F 25.2 °F 28.9 °F 96% 30.27 in 2.5 mi West 4.6 mph - N/A   Clear
4:53 AM 30.9 °F - 28.9 °F 92% 30.27 in 2.5 mi Calm Calm - N/A   Clear
5:53 AM 30.0 °F 26.5 °F 28.9 °F 96% 30.27 in 2.0 mi SW 3.5 mph - N/A   Clear
6:14 AM 28.9 °F - 27.0 °F 92% 30.26 in 1.2 mi Calm Calm - N/A   Clear
6:24 AM 28.9 °F - 27.0 °F 92% 30.27 in 0.5 mi Calm Calm - N/A Fog Light Freezing Fog
6:37 AM 28.9 °F - 28.0 °F 96% 30.27 in 1.2 mi Calm Calm - N/A   Clear
6:51 AM 28.4 °F - 28.4 °F 100% 30.27 in 1.2 mi Calm Calm - N/A   Scattered Clouds
6:53 AM 30.0 °F - 28.0 °F 92% 30.27 in 1.0 mi Calm Calm - N/A   Mist
6:58 AM 28.9 °F - 27.0 °F 92% 30.27 in 0.2 mi Calm Calm - N/A Fog Light Freezing Fog
7:07 AM 28.9 °F - 27.0 °F 92% 30.27 in 0.2 mi Calm Calm - N/A Fog Light Freezing Fog
7:19 AM 30.0 °F - 28.9 °F 96% 30.28 in 0.5 mi Calm Calm - N/A Fog Light Freezing Fog
7:38 AM 30.9 °F - 30.0 °F 96% 30.28 in 1.0 mi Calm Calm - N/A   Mist
7:53 AM 30.9 °F - 30.9 °F 100% 30.29 in 1.0 mi Calm Calm - N/A   Clear
8:53 AM 35.1 °F - 33.1 °F 92% 30.31 in 1.8 mi Calm Calm - N/A   Clear
9:03 AM 37.0 °F - 34.0 °F 89% 30.31 in 2.0 mi Calm Calm - N/A   Clear
9:32 AM 39.0 °F - 36.0 °F 89% 30.32 in 3.0 mi Calm Calm - N/A   Clear
9:53 AM 41.0 °F - 37.0 °F 86% 30.32 in 4.0 mi Calm Calm - N/A   Clear
10:53 AM 46.0 °F - 36.0 °F 68% 30.31 in 6.0 mi Calm Calm - N/A   Haze
11:53 AM 48.0 °F - 37.9 °F 68% 30.30 in 6.0 mi Calm Calm - N/A   Haze
12:53 PM 53.1 °F - 39.0 °F 59% 30.26 in 8.0 mi Variable 5.8 mph - N/A   Clear
1:53 PM 55.0 °F - 37.0 °F 51% 30.23 in 10.0 mi SW 4.6 mph - N/A   Clear
2:53 PM 57.0 °F - 37.0 °F 47% 30.19 in 10.0 mi SE 8.1 mph - N/A   Clear
3:53 PM 59.0 °F - 39.9 °F 49% 30.18 in 10.0 mi SW 10.4 mph - N/A   Clear
4:53 PM 57.9 °F - 39.0 °F 49% 30.15 in 10.0 mi SSE 8.1 mph - N/A   Clear
5:53 PM 57.0 °F - 41.0 °F 55% 30.15 in 10.0 mi SSE 8.1 mph - N/A   Clear
6:53 PM 54.0 °F - 42.1 °F 64% 30.14 in 10.0 mi South 5.8 mph - N/A   Clear
7:53 PM 50.0 °F - 41.0 °F 71% 30.13 in 10.0 mi SSW 5.8 mph - N/A   Clear
8:53 PM 48.0 °F - 41.0 °F 77% 30.13 in 10.0 mi South 4.6 mph - N/A   Clear
9:53 PM 45.0 °F - 39.9 °F 82% 30.13 in 9.0 mi Calm Calm - N/A   Clear
10:53 PM 42.1 °F 40.2 °F 39.9 °F 92% 30.13 in 6.0 mi SE 3.5 mph - N/A   Clear
11:53 PM 42.1 °F 40.2 °F 39.0 °F 89% 30.12 in 6.0 mi ESE 3.5 mph - N/A   Clear